www.pogodaiklimat.ru

Погода и климат >> Архив погоды >> Россия >> Мурманская область >> Апатиты


ПОГОДА в Апатитах

  • Прогноз погоды в Апатитах
  • Монитор погоды в Апатитах

АРХИВ ПОГОДЫ в Апатитах

Время (UTC), дата Ветер
(напр.,м/с)
 
Видим.   Явления Облачность Т
(С)
Тd
(С)
f
(%)
Тe
(С)
Тes
(С)
Комфортность P
(гПа)
Po
(гПа)
Тmin
(С)
Tmax
(С)
R
(мм)
R24
(мм)
S
(см)
12 11.06 СЗ 5-7
{12}
10 км слаб. ливневой дождь 10/8 300 м
[Cb cap Ci ing]
+3.4 +1.4 87 -2 -1 1023.5 1006.7
18 11.06 СЗ 4 50 км {ливн. осадки} 9/8 600 м
[Sc Ac As]
+3.7 -0.1 76 -1 -1 1026.4 1009.6 +4.8 0.3
00 12.06 СЗ 4 50 км 8/3 600 м
[Sc Ac lent Ci fib]
+2.2 -1.4 77 -3 -3 1027.4 1010.5
06 12.06 СЗ 6-11
{12}
50 км 3/3 600 м
[Sc Ac trans]
+5.8 -0.9 62 +1 +3 1028.1 1011.4 +2.0
12 12.06 СЗ 5-9
{10}
50 км 3/1 600 м
[Cu hum Ci fib]
+10.1 +0.2 50 +7 +12 1028.7 1012.3
18 12.06 СЗ 2 50 км 5/0
[Ci fib]
+11.2 +1.3 50 +10 +11 1028.0 1011.6 +11.8
00 13.06 ЮЗ 1 20 км 9/0
[Ci sp]
+2.9 +1.8 92 +1 +1 1029.4 1012.5
06 13.06 ЮЗ 2 50 км 8/3 600 м
[Sc Cs]
+9.7 +4.6 71 +8 +12 1028.1 1011.7 +2.3
12 13.06 З 3 50 км 8/3 600 м
[Cu Sc Cc]
+15.3 +1.8 40 +15 +20 1025.7 1009.6
18 13.06 Ю 1 50 км 9/6 600 м
[Sc Ac lent Ci fib]
+14.4 +3.3 47 +15 +15 1022.7 1006.6 +16.8
00 14.06 СЗ 1 50 км 9/5 600 м
[Sc Ac As Ci fib]
+8.3 +5.8 84 +8 +8 1020.9 1004.5
06 14.06 СЗ 5 20 км 6/5 600 м
[Cu hum Ac lent]
+14.7 +4.5 50 +13 +15 1017.7 1001.7 +7.9
12 14.06 СЗ 5-8
{10}
50 км 10/6 600 м
[Sc Ac und]
+14.2 +2.2 44 +13 +13 1016.0 1000.0
18 14.06 СЗ 3 50 км 9/4 600 м
[Sc Ac trans Ci fib]
+13.4 +1.4 44 +13 +13 1014.5 998.5 +16.3
00 15.06 СЗ 1 50 км 5/3 600 м
[Sc Ci fib]
+5.3 +1.5 76 +4 +4 1016.4 999.9
06 15.06 СЗ 4 20 км 3/1 600 м
[Sc Ci fib]
+9.0 +2.6 64 +6 +10 1016.4 1000.1 +3.7
12 15.06 З 3 50 км 3/1 600 м
[Cu hum Ci fib]
+16.0 +3.0 42 +16 +23 1014.1 998.2
18 15.06 З 1 50 км 9/3 600 м
[Sc diur, vesp Ci fib]
+15.5 +4.6 48 +16 +17 1010.1 994.3 +17.6
00 16.06 З 3 50 км 6/3 600 м
[Sc Ci fib]
+11.2 +3.5 59 +10 +10 1008.1 992.1
06 16.06 СЗ 8-13
{14}
20 км 4/3 600 м
[Cu Sc Ci fib]
+10.1 +2.8 60 +6 +7 1008.9 992.8 +7.8
12 16.06 СЗ 6-10
{10}
20 км 4/3 600 м
[Cu Sc Ci fib]
+12.4 +2.3 50 +10 +13 1010.8 994.8
18 16.06 ЮЗ 2 20 км 3/1 600 м
[Cu hum Ci fib]
+13.8 +3.8 51 +13 +14 1009.2 993.3 +14.7
00 17.06 З 2 50 км 1/0
[Ci fib]
+8.2 +2.2 66 +7 +7 1009.8 993.6
06 17.06 З 3 20 км ясно +11.7 +3.1 56 +10 +16 1009.1 993.1 +6.8
12 17.06 З 2 50 км 3/1 600 м
[Sc Ac trans Cc]
+17.1 +0.3 32 +17 +25 1007.3 991.6
18 17.06 СЗ 3 50 км 1/1 600 м
[Sc]
+17.2 +0.7 33 +17 +18 1006.0 990.3 +18.4
00 18.06 ЮВ 2 50 км 4/1 600 м
[Sc Ci fib]
+7.1 +3.0 75 +5 +5 1009.0 992.7
06 18.06 штиль 0 50 км 6/4 600 м
[Cu hum Ci fib]
+11.2 +3.2 58 +11 +16 1009.0 992.9 +5.6

 

Местоположение метеостанции Апатиты (Мурманская область, Россия): широта 67.55 долгота 33.35 высота над уровнем моря 134 м.

В архиве по умолчанию представлена погода в Апатитах за последнюю неделю. Архивные данные за месяц целиком и за предыдущие месяцы, начиная с января 2011 года, Вы можете получить, выбрав интересующий диапазон дат из раскрывающегося списка и нажав кнопку "Ввод!".


*Определитесь, кто Вы:
робот инопланетянин человек

Внимание! Время в таблицах - всемирное. Для получения местного времени необходимо прибавить поправку, которая равна 3 ч.

Смотрите также архив погоды в соседних городах и на ближайших метеорологических станциях:

Погода в Кировске (Мурманская область, Россия) (16 км)
Погода в Зашейке (Мурманская область, Россия) (38 км)
Погода в Умбозере (Мурманская область, Россия) (41 км)
Погода в Мончегорске (Мурманская область, Россия) (46 км)
Погода в Порту Кандалакша (Мурманская область, Россия) (61 км)
Погода в Кандалакше (Мурманская область, Россия) (62 км)
Погода в Порту Витино (Мурманская область, Россия) (68 км)
Погода в Ловозере (Мурманская область, Россия) (87 км)
Погода в Пулозере (Мурманская область, Россия) (89 км)
Погода в Ковде (Мурманская область, Россия) (97 км)

Пояснения к столбцам:

Ветер - указаны скорость ветра в м/с - средняя за 10 мин, порывы в срок и между сроками (в фигурных скобках) и направление, откуда дует ветер: С - северный, СВ - северо-восточный, В - восточный, ЮВ - юго-восточный, Ю - южный, ЮЗ - юго-западный, З - западный, СЗ - северо-западный.
Видимость - горизонтальная дальность видимости в метрах или километрах. При видимости от 1 до 10 км при отсутствии осадков обычно наблюдается дымка, при ухудшении видимости до 1 км и менее - туман. В сухую погоду видимость может ухудшаться дымом, пылью или мглою.
Явления - указаны атмосферные явления, наблюдавшиеся в срок или в последний час перед сроком; фигурными скобками обозначены явления, наблюдавшиеся между сроками (за 1-3 часа до срока); квадратными скобками обозначены град или гололедные отложения с указанием их диаметра в мм.
Облачность - указаны через наклонную черту общая и нижняя облачность в баллах и высота нижней границы облаков в метрах; квадратными скобками обозначены формы облаков: Ci - перистые, Cs - перисто-слоистые, Cc - перисто-кучевые, Ac - высококучевые, As - высокослоистые, Sc - слоисто-кучевые, Ns - слоисто-дождевые, Cu - кучевые, Cb - кучево-дождевые. Подробнее классификацию облаков см. в Атласе облаков (PDF).
T - Температура воздуха - температура, измеренная на высоте 2 м над землей.
Td - Температура точки росы - температура, при понижении до которой содержащийся в воздухе водяной пар достигнет насыщения.
f - Относительная влажность воздуха - влажноcть воздуха, измеренная на высоте 2 м над землей.
Te - Эффективная температура - температура, которую ощущает одетый по сезону человек в тени. Характеристика душности погоды. При расчете учитывается влияние влажности воздуха и скорости ветра на теплоощущения человека.
Tes - Эффективная температура на солнце - температура, которую ощущает человек, с поправкой на солнечный нагрев. Характеристика знойности погоды. Зависит от высоты солнца над горизонтом, облачности и скорости ветра. Ночью, в пасмурную погоду, а также при ветре 12 м/с и более поправка равна нулю.
P - Атмосферное давление - приведенное к уровню моря атмосферное давление.
Po - Атмосферное давление - измеренное на уровне метеостанции атмосферное давление.
Tmin - Минимальная температура - минимум температуры воздуха на высоте 2 м над землей.
Tmax - Максимальная температура - максимум температуры воздуха на высоте 2 м над землей.
R - Количество осадков - Количество выпавших осадков за период времени, мм. При наведении курсора мыши на число - период времени, за который выпало указанное количество осадков.
R24 - Количество осадков - Количество выпавших осадков за 24 часа, мм.
S - Снежный покров - Высота снежного покрова, см. При наведении курсора мыши на число - состояние снежного покрова и степень покрытия местности в баллах.